[Iaude] MPEC M59: 2016 PO296 [a=58.35,e=0.30,i=14.3,H=5.8]

mpec at cfa.harvard.edu mpec at cfa.harvard.edu
Wed Jun 26 21:29:56 EDT 2024


M.P.E.C. 2024-M59                                 Issued 2024 June 27, 01:28 UT

     The Minor Planet Electronic Circulars contain information on unusual
         minor planets, routine data on comets and natural satellites,
         and occasional editorial announcements.  They are published
    on behalf of Division F of the International Astronomical Union by the
          Minor Planet Center, Smithsonian Astrophysical Observatory,
                          Cambridge, MA 02138, U.S.A.
			  
             Prepared using the Tamkin Foundation Computer Network

                              MPC at CFA.HARVARD.EDU
            URL https://www.minorplanetcenter.net/    ISSN 1523-6714

                                   2016 PO296                                   


Observations:
     K16PT6O 5C2010 10 15.37882723 13 02.56 -00 51 16.4                WEM059T14
     K16PT6O 5C2010 11 09.21234523 12 16.47 -00 56 41.9                WEM059T14
     K16PT6O 5C2010 11 09.21766523 12 16.45 -00 56 42.4                WEM059T14
     K16PT6O 5C2010 11 09.22303123 12 16.44 -00 56 42.1                WEM059T14
     K16PT6O 5C2010 11 09.22840623 12 16.45 -00 56 41.9                WEM059T14
     K16PT6O 5C2010 11 09.23370723 12 16.44 -00 56 42.2                WEM059T14
     K16PT6O 1C2016 07 07.57910323 28 02.71 +01 33 49.7                WEM059T09
     K16PT6O 1C2016 07 07.60843923 28 02.67 +01 33 49.6                WEM059T09
     K16PT6O 4C2016 08 01.49230 23 27 23.13 +01 31 44.3          24.2 z1EM059T09
     K16PT6O 4C2016 08 01.51671 23 27 23.11 +01 31 44.1          24.0 z1EM059T09
     K16PT6O 4C2016 08 01.52754 23 27 23.08 +01 31 43.9          23.8 z1EM059T09
     K16PT6O 4C2016 08 01.54931 23 27 23.03 +01 31 43.8          24.0 z1EM059T09
     K16PT6O 4C2016 08 01.57371 23 27 22.98 +01 31 43.6          23.9 z1EM059T09
     K16PT6O*4C2016 08 09.44305 23 27 05.28 +01 30 24.0          23.7 y1EM059T09
     K16PT6O 4C2016 08 09.45746 23 27 05.22 +01 30 23.7          23.8 y1EM059T09
     K16PT6O 4C2016 08 09.48473 23 27 05.17 +01 30 23.7          24.1 y1EM059T09
     K16PT6O 4C2016 08 09.50679 23 27 05.10 +01 30 23.0          23.9 y1EM059T09
     K16PT6O 4C2016 08 09.55952 23 27 04.98 +01 30 22.7          23.9 y1EM059T09
     K16PT6O 1C2016 09 05.34432923 25 52.56 +01 24 01.9          23.8 iWEM059T09
     K16PT6O 1C2016 09 05.37209023 25 52.48 +01 24 01.4          23.8 iWEM059T09
     K16PT6O 1C2016 09 05.40999123 25 52.37 +01 24 00.8          23.7 iWEM059T09
     K16PT6O 1C2017 06 27.53039223 30 01.55 +01 54 27.2          23.6 zWEM059T09
     K16PT6O 1C2017 06 27.56784023 30 01.54 +01 54 27.3          23.5 zWEM059T09
     K16PT6O 1C2019 09 27.36399223 30 28.65 +02 21 14.1          24.6 gWEM059T09
     K16PT6O 1C2019 09 27.45736623 30 28.38 +02 21 12.3          24.8 gWEM059T09

Observer details:
T09 Subaru Telescope, Maunakea.  Observers , H. Aihara, Y. AlSayyad, M. Ando,
    R. Armstrong, J. Bosch, E. Egami, H. Furusawa, J. Furusawa, S. Harasawa,
    Y. Harikane, B.-C. Hsieh, H. Ikeda, K. Ito, I. Iwata, T. Kodama, M. Koike,
    M. Kokubo, Y. Komiyama, X. Li, Y. Liang, Y.-T. Lin, R. H. Lupton, N. B.
    Lust, L. A. MacArthur, K. Mawatari, S. Mineo, H. Miyatake, S. Miyazaki, S.
    More, T. Morishima, H. Murayama, K. Nakajima, F. Nakata, A. J. Nishizawa,
    M. Oguri, N. Okabe, Y. Okura, Y. Ono, K. Osato, M. Ouchi, Y.-C. Pan, A. A.
    Plazas Malagon, P. A. Price, S. L. Reed, E. S. Rykoff, T. Shibuya, M.
    Simunovic, M. A. Strauss, K. Sugimori, Y. Suto, N. Suzuki, M. Takada, Y.
    Takagi, T. Takata, S. Takita, M. Tanaka, S. Tang, D. S. Taranu, T. Terai,
    Y. Toba, E. L. Turner, H. Uchiyama, B. Vijarnwannaluk, C. Z. Waters, Y.
    Yamada, N. Yamamoto, T. Yamashita.  Measurers S. Deen, T. Kojima, H.
    Fukuyama.  8.3-m Subaru Telescope + CCD, 8.2-m f/2.0 reflector + CCD(HSC).
T14 Canada-France-Hawaii Telescope, Maunakea.  Observer L. Van Werbeke.
    Measurer S. Deen.  3.58-m Canada-France-Hawaii Telescope + CCD.

Orbital elements:
2016 PO296                                                                      
Epoch 2024 Mar. 31.0 TT = JDT 2460400.5                 Alexandersen            
M 259.41446              (2000.0)            P               Q                  
n   0.00221156     Peri.  154.10713     -0.62610238     -0.77226843             
a  58.3450606      Node   334.22270     +0.66546905     -0.45724555             
e   0.2999980      Incl.   14.33769     +0.40638251     -0.44105326             
P 446              H    5.89          G   0.15           U   5                  
Residuals in seconds of arc
101015 T14  0.1-  0.1+    160801 T09  0.1+  0.0     160905 T09  0.0   0.0
101109 T14  0.1+  0.1+    160801 T09  0.0   0.1-    160905 T09  0.1+  0.1-
101109 T14  0.1-  0.4-    160801 T09  0.0   0.0     160905 T09  0.1+  0.0
101109 T14  0.1-  0.0     160801 T09  0.0   0.0     170627 T09  0.0   0.0
101109 T14  0.1+  0.2+    160809 T09  0.2+  0.1+    170627 T09  0.1+  0.1-
101109 T14  0.1+  0.0     160809 T09  0.2-  0.1-    190927 T09  0.1-  0.1+
160707 T09  0.1+  0.0     160809 T09  0.1+  0.2+    190927 T09  0.0   0.0
160707 T09  0.0   0.1-    160809 T09  0.2-  0.2-
160801 T09  0.4-  0.0     160809 T09  0.0   0.1+

Ephemeris:
2016 PO296               a,e,i = 58.35, 0.30, 14                 q = 40.8417
Date    TT    R. A. (2000) Decl.     Delta      r    Elong.  Phase     V
2024 05 28    23 43 06.1 +04 17 54  66.3502 65.9955    69.1     0.8    24.2
...
2024 06 12    23 43 20.8 +04 21 14  66.0979 65.9874    83.3     0.9    24.2
...
2024 06 20    23 43 23.7 +04 22 30  65.9594 65.9831    90.9     0.9    24.2
...
2024 06 26    23 43 23.6 +04 23 12  65.8556 65.9799    96.6     0.9    24.2
2024 06 27    23 43 23.4 +04 23 18  65.8383 65.9794    97.5     0.9    24.2
2024 06 28    23 43 23.1 +04 23 24  65.8212 65.9788    98.5     0.9    24.2
...
2024 07 04    23 43 20.4 +04 23 48  65.7191 65.9756   104.2     0.9    24.2
...
2024 07 12    23 43 13.8 +04 24 01  65.5871 65.9713   111.8     0.8    24.2
...
2024 07 27    23 42 52.8 +04 23 22  65.3598 65.9632   126.1     0.7    24.2

M. P. C. Staff               (C) Copyright 2024 MPC           M.P.E.C. 2024-M59





More information about the Iaude mailing list